#timestamp,LO_Frequency,Hit 
1500408015.8,286047013.9,N
1500408035.6,286047011.0,N
1500408055.5,286047014.0,N
1500408075.3,286047013.3,N
1500408095.1,286047013.3,N
1500408115.9,286047013.7,N
1500408135.7,286047013.2,N
1500408155.6,286047012.7,N
1500408175.4,286047015.5,N
1500408195.2,286047012.8,N
1500408215.1,286047012.8,N
1500408216.0,286047012.8,N
1500408235.8,286047013.5,N
1500408255.7,286047013.4,N
1500408275.5,286047013.4,N
1500408295.3,286047012.7,N
1500408315.2,286047012.8,N
1500408335.9,286047013.0,N
1500408355.7,286047013.8,N
1500408375.6,286047013.3,N
1500408395.4,286047012.2,N
1500408415.3,286047012.0,N
1500408435.1,286047012.1,N
1500408455.8,286047011.9,N
1500408475.7,286047012.4,N
1500408495.5,286047012.3,N
1500408515.4,286047009.6,N
1500408535.2,286047010.2,N
1500408555.1,286047008.1,N
1500408556.0,286047008.1,N
1500408575.8,286047009.1,N
1500408595.6,286047008.7,N
1500408615.5,286047006.6,N
1500408635.3,286047006.3,N
1500408655.1,286047006.8,N
1500408675.9,286047006.4,N
1500408695.7,286047007.0,N
1500408715.6,286047004.6,N
1500408735.4,286047004.8,N
1500408755.2,286047004.7,N
1500408775.1,286047005.8,N
1500408776.0,286047005.8,N
1500408795.8,286047004.8,N
1500408815.7,286047004.6,N
1500408835.5,286047007.6,N
1500408855.3,286047004.9,N
1500408875.2,286047004.7,N
1500408895.0,286047005.5,N
1500408895.9,286047005.5,N
1500408915.8,286047007.5,N
1500408935.6,286047005.7,N
1500408955.4,286047005.7,N
1500408975.3,286047003.4,N
1500408995.1,286047005.8,N
1500409015.8,286047002.9,N
1500409035.7,286047003.1,N
1500409055.5,286047003.9,N
1500409075.4,286047004.3,N
1500409095.2,286047004.3,N
1500409115.0,286047004.2,N
1500409115.9,286047004.2,N
1500409135.8,286047001.5,N
1500409155.6,286047003.5,N
1500409175.5,286047003.2,N
1500409195.3,286047005.6,N
1500409215.1,286047005.9,N
1500409235.9,286047003.4,N
1500409255.7,286047002.9,N
1500409275.6,286047003.3,N
1500409295.4,286047003.1,N
1500409315.2,286047003.6,N
1500409335.1,286047004.0,N
1500409336.0,286047004.0,N
1500409355.8,286047003.9,N
1500409375.7,286047001.4,N
1500409395.5,286047002.2,N
1500409415.3,286047001.8,N
1500409435.2,286047001.5,N
1500409455.0,286047002.5,N
1500409455.9,286047002.5,N
1500409475.7,286047002.6,N
1500409495.6,286047002.4,N
1500409515.4,286047002.6,N
1500409535.3,286047002.2,N
1500409555.1,286047002.4,N
1500409575.9,286047002.2,N
1500409595.7,286047002.4,N
1500409615.5,286047002.2,N
1500409635.4,286047002.2,N
1500409655.2,286047002.8,N
1500409675.0,286047001.4,N
1500409676.0,286047001.4,N
1500409695.8,286047001.9,N
1500409715.6,286047001.9,N
1500409735.5,286047001.9,N
1500409755.3,286047001.6,N
1500409775.1,286047003.9,N
1500409795.9,286047001.3,N
1500409815.7,286047001.6,N
1500409835.6,286047002.5,N
1500409855.4,286047001.5,N
1500409875.2,286047004.2,N
1500409895.1,286047003.7,N
1500409896.0,286047003.7,N
1500409915.8,286047003.0,N
1500409935.7,286047003.5,N
1500409955.5,286047003.8,N
1500409975.3,286047003.8,N
1500409995.2,286047003.7,N
1500410015.0,286047003.5,N
1500410015.9,286047003.5,N
1500410035.7,286047003.1,N
1500410055.6,286047005.6,N
1500410075.4,286047005.2,N
1500410095.3,286047004.8,N
1500410115.1,286047004.8,N
1500410135.8,286047007.2,N
1500410155.7,286047005.0,N
1500410175.5,286047005.3,N
1500410195.4,286047005.8,N
1500410215.2,286047005.6,N
1500410235.0,286047005.1,N
1500410235.9,286047005.1,N
1500410255.8,286047004.7,N
1500410275.6,286047005.0,N
1500410295.4,286047004.7,N
1500410315.3,286047004.5,N
1500410335.1,286047006.9,N
1500410355.9,286047007.3,N
1500410375.7,286047007.6,N
1500410395.5,286047007.1,N
1500410415.4,286047006.8,N
1500410435.2,286047006.8,N
1500410455.0,286047006.1,N
1500410456.0,286047006.1,N
1500410475.8,286047006.5,N
1500410495.6,286047009.2,N
1500410515.5,286047008.6,N
1500410535.3,286047008.9,N
1500410555.2,286047008.8,N
1500410575.9,286047008.9,N
1500410595.7,286047008.6,N
1500410615.6,286047008.6,N
1500410635.4,286047006.2,N
1500410655.2,286047006.1,N
1500410675.1,286047006.1,N
1500410676.0,286047006.1,N
1500410695.8,286047006.1,N
1500410715.7,286047009.1,N
1500410735.5,286047009.1,N
1500410755.3,286047006.5,N
1500410775.2,286047009.0,N
1500410795.0,286047008.8,N
1500410795.9,286047008.8,N
1500410815.8,286047009.2,N
1500410835.6,286047009.1,N
1500410855.4,286047008.3,N
1500410875.3,286047008.4,N
1500410895.1,286047007.7,N
1500410915.8,286047010.5,N
1500410935.7,286047009.5,N
1500410955.5,286047010.0,N
1500410975.4,286047010.3,N
1500410995.2,286047007.8,N
1500411015.0,286047010.7,N
1500411015.9,286047010.7,N
1500411035.8,286047010.4,N
1500411055.6,286047010.8,N
1500411075.4,286047007.9,N
1500411095.3,286047007.7,N
1500411115.1,286047010.6,N
1500411135.9,286047007.8,N
1500411155.7,286047010.3,N
1500411175.5,286047010.1,N
1500411195.4,286047009.6,N
1500411215.2,286047010.6,N
1500411235.0,286047010.5,N
1500411236.0,286047010.5,N
1500411255.8,286047010.7,N
1500411275.6,286047010.1,N
1500411295.5,286047010.7,N
1500411315.3,286047009.8,N
1500411335.1,286047012.4,N
1500411355.9,286047009.8,N
1500411375.7,286047012.2,N
1500411395.6,286047012.0,N
1500411415.4,286047011.8,N
1500411435.2,286047011.8,N
1500411455.1,286047012.1,N
1500411456.0,286047012.1,N
1500411475.8,286047011.6,N
1500411495.6,286047011.9,N
1500411515.5,286047011.9,N
1500411535.3,286047011.7,N
1500411555.2,286047011.1,N
1500411575.9,286047012.3,N
1500411595.7,286047009.3,N
